P/2012 TK8 ( Tenagra )

Japanese version
Home page
Updated on June 11, 2016

---------------------------------------------------------------------

* Profile

Discovery Date October 6, 2012
Magnitude 19.7 mag
Discoverer Michael Schwartz (Nogales, AZ, U.S.A.), P. R. Holvorcem (Tenagra II Observatory)

* Pictures

* Orbital Elements

Epoch 2013 May 28.0 TT = JDT 2456440.5
T 2013 May 10.58194 TT                                  MPC
q   3.0909816            (2000.0)            P               Q
n   0.11495603     Peri.  128.20882     +0.52645866     -0.84391125
a   4.1890436      Node   289.72359     +0.74175356     +0.51524341
e   0.2621271      Incl.    6.29553     +0.41550324     +0.14945913
P   8.57
From 62 observations 2012 Oct. 6-2014 Apr. 2, mean residual 0".4.

* Magnitudes Graph

        m1 = 12.5 + 5 log d + 10.0 log r

---------------------------------------------------------------------

The orbital elements are published on M.P.E.C. 2014-G32.
The magnitudes graphs are made with Comet for Windows.

---------------------------------------------------------------------

Copyright(C) Seiichi Yoshida (comet@aerith.net). All rights reserved.